Location: Usti nad Labem
(50.6670°N, 14.0330°E)
Time: 22:01:23
(UTC+01:00)

Envisat - Pass Details

Date: 03 December 2020
Orbit: 764 x 766 km, 98.1° (Epoch: 15 January)

Event Time Altitude Azimuth Distance (km) Brightness Sun altitude
Rises 06:41:40 0° 10° (N) 3,247 6.1 -9.8°
Reaches altitude 10° 06:44:01 10° 6° (N) 2,316 5.3 -9.4°
Maximum altitude 06:48:58 53° 291° (WNW) 938 3.1 -8.7°
Drops below altitude 10° 06:53:53 10° 216° (SW) 2,299 5.4 -8.0°
Sets 06:56:13 0° 211° (SSW) 3,220 6.2 -7.7°
